Year,Month,Day,Hour,Minute,Value (Times are PST for temperature in C)
2017,04,19,00,00,7.30
2017,04,19,00,01,7.30
2017,04,19,00,02,7.30
2017,04,19,00,03,7.30
2017,04,19,00,04,7.30
2017,04,19,00,05,7.30
2017,04,19,00,06,7.30
2017,04,19,00,07,7.30
2017,04,19,00,08,7.20
2017,04,19,00,09,7.20
2017,04,19,00,10,7.20
2017,04,19,00,11,7.20
2017,04,19,00,12,7.20
2017,04,19,00,13,7.20
2017,04,19,00,14,7.20
2017,04,19,00,15,7.20
2017,04,19,00,16,7.20
2017,04,19,00,17,7.30
2017,04,19,00,18,7.30
2017,04,19,00,19,7.30
2017,04,19,00,20,7.30
2017,04,19,00,21,7.30
2017,04,19,00,22,7.30
2017,04,19,00,23,7.30
2017,04,19,00,24,7.30
2017,04,19,00,25,7.30
2017,04,19,00,26,7.30
2017,04,19,00,27,7.30
2017,04,19,00,28,7.40
2017,04,19,00,29,7.40
2017,04,19,00,30,7.40
2017,04,19,00,31,7.40
2017,04,19,00,32,7.40
2017,04,19,00,33,7.40
2017,04,19,00,34,7.40
2017,04,19,00,35,7.30
2017,04,19,00,36,7.30
2017,04,19,00,37,7.30
2017,04,19,00,38,7.30
2017,04,19,00,39,7.30
2017,04,19,00,40,7.30
2017,04,19,00,41,7.30
2017,04,19,00,42,7.30
2017,04,19,00,43,7.20
2017,04,19,00,44,7.20
2017,04,19,00,45,7.20
2017,04,19,00,46,7.20
2017,04,19,00,47,7.20
2017,04,19,00,48,7.20
2017,04,19,00,49,7.20
2017,04,19,00,50,7.20
2017,04,19,00,51,7.20
2017,04,19,00,52,7.20
2017,04,19,00,53,7.20
2017,04,19,00,54,7.20
2017,04,19,00,55,7.20
2017,04,19,00,56,7.20
2017,04,19,00,57,7.20
2017,04,19,00,58,7.10
2017,04,19,00,59,7.10
2017,04,19,01,00,7.10
2017,04,19,01,01,7.10
2017,04,19,01,02,7.10
2017,04,19,01,03,7.10
2017,04,19,01,04,7.10
2017,04,19,01,05,7.10
2017,04,19,01,06,7.10
2017,04,19,01,07,7.10
2017,04,19,01,08,7.10
2017,04,19,01,09,7.10
2017,04,19,01,10,7.10
2017,04,19,01,11,7.10
2017,04,19,01,12,7.10
2017,04,19,01,13,7.10
2017,04,19,01,14,7.10
2017,04,19,01,15,7.00
2017,04,19,01,16,7.00
2017,04,19,01,17,7.00
2017,04,19,01,18,6.90
2017,04,19,01,19,6.90
2017,04,19,01,20,6.90
2017,04,19,01,21,6.90
2017,04,19,01,22,6.90
2017,04,19,01,23,6.90
2017,04,19,01,24,6.80
2017,04,19,01,25,6.80
2017,04,19,01,26,6.80
2017,04,19,01,27,6.80
2017,04,19,01,28,6.80
2017,04,19,01,29,6.80
2017,04,19,01,30,6.70
2017,04,19,01,31,6.70
2017,04,19,01,32,6.70
2017,04,19,01,33,6.70
2017,04,19,01,34,6.70
2017,04,19,01,35,6.70
2017,04,19,01,36,6.70
2017,04,19,01,37,6.70
2017,04,19,01,38,6.60
2017,04,19,01,39,6.60
2017,04,19,01,40,6.60
2017,04,19,01,41,6.60
2017,04,19,01,42,6.60
2017,04,19,01,43,6.60
2017,04,19,01,44,6.60
2017,04,19,01,45,6.60
2017,04,19,01,46,6.60
2017,04,19,01,47,6.60
2017,04,19,01,48,6.50
2017,04,19,01,49,6.50
2017,04,19,01,50,6.50
2017,04,19,01,51,6.50
2017,04,19,01,52,6.50
2017,04,19,01,53,6.50
2017,04,19,01,54,6.50
2017,04,19,01,55,6.50
2017,04,19,01,56,6.50
2017,04,19,01,57,6.50
2017,04,19,01,58,6.50
2017,04,19,01,59,6.40
2017,04,19,02,00,6.40
2017,04,19,02,01,6.40
2017,04,19,02,02,6.40
2017,04,19,02,03,6.40
2017,04,19,02,04,6.40
2017,04,19,02,05,6.40
2017,04,19,02,06,6.30
2017,04,19,02,07,6.30
2017,04,19,02,08,6.30
2017,04,19,02,09,6.30
2017,04,19,02,10,6.30
2017,04,19,02,11,6.30
2017,04,19,02,12,6.30
2017,04,19,02,13,6.30
2017,04,19,02,14,6.30
2017,04,19,02,15,6.30
2017,04,19,02,16,6.30
2017,04,19,02,17,6.30
2017,04,19,02,18,6.30
2017,04,19,02,19,6.20
2017,04,19,02,20,6.20
2017,04,19,02,21,6.20
2017,04,19,02,22,6.20
2017,04,19,02,23,6.20
2017,04,19,02,24,6.20
2017,04,19,02,25,6.20
2017,04,19,02,26,6.20
2017,04,19,02,27,6.20
2017,04,19,02,28,6.20
2017,04,19,02,29,6.20
2017,04,19,02,30,6.20
2017,04,19,02,31,6.20
2017,04,19,02,32,6.20
2017,04,19,02,33,6.20
2017,04,19,02,34,6.20
2017,04,19,02,35,6.20
2017,04,19,02,36,6.20
2017,04,19,02,37,6.20
2017,04,19,02,38,6.20
2017,04,19,02,39,6.20
2017,04,19,02,40,6.20
2017,04,19,02,41,6.20
2017,04,19,02,42,6.20
2017,04,19,02,43,6.20
2017,04,19,02,44,6.20
2017,04,19,02,45,6.20
2017,04,19,02,46,6.20
2017,04,19,02,47,6.20
2017,04,19,02,48,6.10
2017,04,19,02,49,6.10
2017,04,19,02,50,6.10
2017,04,19,02,51,6.10
2017,04,19,02,52,6.10
2017,04,19,02,53,6.10
2017,04,19,02,54,6.10
2017,04,19,02,55,6.10
2017,04,19,02,56,6.10
2017,04,19,02,57,6.10
2017,04,19,02,58,6.00
2017,04,19,02,59,6.00
2017,04,19,03,00,6.00
2017,04,19,03,01,5.90
2017,04,19,03,02,5.90
2017,04,19,03,03,5.90
2017,04,19,03,04,5.90
2017,04,19,03,05,5.90
2017,04,19,03,06,5.80
2017,04,19,03,07,5.80
2017,04,19,03,08,5.80
2017,04,19,03,09,5.80
2017,04,19,03,10,5.80
2017,04,19,03,11,5.80
2017,04,19,03,12,5.80
2017,04,19,03,13,5.80
2017,04,19,03,14,5.80
2017,04,19,03,15,5.80
2017,04,19,03,16,5.70
2017,04,19,03,17,5.70
2017,04,19,03,18,5.70
2017,04,19,03,19,5.70
2017,04,19,03,20,5.70
2017,04,19,03,21,5.70
2017,04,19,03,22,5.70
2017,04,19,03,23,5.70
2017,04,19,03,24,5.70
2017,04,19,03,25,5.70
2017,04,19,03,26,5.70
2017,04,19,03,27,5.70
2017,04,19,03,28,5.70
2017,04,19,03,29,5.70
2017,04,19,03,30,5.70
2017,04,19,03,31,5.70
2017,04,19,03,32,5.70
2017,04,19,03,33,5.70
2017,04,19,03,34,5.70
2017,04,19,03,35,5.70
2017,04,19,03,36,5.70
2017,04,19,03,37,5.60
2017,04,19,03,38,5.60
2017,04,19,03,39,5.60
2017,04,19,03,40,5.60
2017,04,19,03,41,5.60
2017,04,19,03,42,5.60
2017,04,19,03,43,5.60
2017,04,19,03,44,5.60
2017,04,19,03,45,5.60
2017,04,19,03,46,5.60
2017,04,19,03,47,5.60
2017,04,19,03,48,5.60
2017,04,19,03,49,5.60
2017,04,19,03,50,5.60
2017,04,19,03,51,5.70
2017,04,19,03,52,5.70
2017,04,19,03,53,5.70
2017,04,19,03,54,5.70
2017,04,19,03,55,5.70
2017,04,19,03,56,5.70
2017,04,19,03,57,5.70
2017,04,19,03,58,5.70
2017,04,19,03,59,5.70
2017,04,19,04,00,5.70
2017,04,19,04,01,5.70
2017,04,19,04,02,5.70
2017,04,19,04,03,5.70
2017,04,19,04,04,5.70
2017,04,19,04,05,5.70
2017,04,19,04,06,5.70
2017,04,19,04,07,5.70
2017,04,19,04,08,5.70
2017,04,19,04,09,5.70
2017,04,19,04,10,5.70
2017,04,19,04,11,5.70
2017,04,19,04,12,5.70
2017,04,19,04,13,5.70
2017,04,19,04,14,5.70
2017,04,19,04,15,5.70
2017,04,19,04,16,5.70
2017,04,19,04,17,5.70
2017,04,19,04,18,5.70
2017,04,19,04,19,5.70
2017,04,19,04,20,5.70
2017,04,19,04,21,5.70
2017,04,19,04,22,5.70
2017,04,19,04,23,5.60
2017,04,19,04,24,5.60
2017,04,19,04,25,5.60
2017,04,19,04,26,5.60
2017,04,19,04,27,5.60
2017,04,19,04,28,5.60
2017,04,19,04,29,5.60
2017,04,19,04,30,5.70
2017,04,19,04,31,5.70
2017,04,19,04,32,5.70
2017,04,19,04,33,5.70
2017,04,19,04,34,5.70
2017,04,19,04,35,5.70
2017,04,19,04,36,5.70
2017,04,19,04,37,5.70
2017,04,19,04,38,5.70
2017,04,19,04,39,5.70
2017,04,19,04,40,5.80
2017,04,19,04,41,5.80
2017,04,19,04,42,5.80
2017,04,19,04,43,5.80
2017,04,19,04,44,5.80
2017,04,19,04,45,5.80
2017,04,19,04,46,5.80
2017,04,19,04,47,5.80
2017,04,19,04,48,5.80
2017,04,19,04,49,5.70
2017,04,19,04,50,5.70
2017,04,19,04,51,5.70
2017,04,19,04,52,5.70
2017,04,19,04,53,5.70
2017,04,19,04,54,5.70
2017,04,19,04,55,5.70
2017,04,19,04,56,5.80
2017,04,19,04,57,5.80
2017,04,19,04,58,5.80
2017,04,19,04,59,5.80
2017,04,19,05,00,5.80
2017,04,19,05,01,5.80
2017,04,19,05,02,5.80
2017,04,19,05,03,5.80
2017,04,19,05,04,5.80
2017,04,19,05,05,5.80
2017,04,19,05,06,5.80
2017,04,19,05,07,5.80
2017,04,19,05,08,5.80
2017,04,19,05,09,5.80
2017,04,19,05,10,5.90
2017,04,19,05,11,5.90
2017,04,19,05,12,5.90
2017,04,19,05,13,5.90
2017,04,19,05,14,5.90
2017,04,19,05,15,5.90
2017,04,19,05,16,5.90
2017,04,19,05,17,6.00
2017,04,19,05,18,6.00
2017,04,19,05,19,6.00
2017,04,19,05,20,6.00
2017,04,19,05,21,6.10
2017,04,19,05,22,6.10
2017,04,19,05,23,6.10
2017,04,19,05,24,6.10
2017,04,19,05,25,6.10
2017,04,19,05,26,6.10
2017,04,19,05,27,6.10
2017,04,19,05,28,6.10
2017,04,19,05,29,6.10
2017,04,19,05,30,6.10
2017,04,19,05,31,6.10
2017,04,19,05,32,6.10
2017,04,19,05,33,6.10
2017,04,19,05,34,6.20
2017,04,19,05,35,6.20
2017,04,19,05,36,6.20
2017,04,19,05,37,6.20
2017,04,19,05,38,6.20
2017,04,19,05,39,6.20
2017,04,19,05,40,6.20
2017,04,19,05,41,6.20
2017,04,19,05,42,6.20
2017,04,19,05,43,6.30
2017,04,19,05,44,6.30
2017,04,19,05,45,6.30
2017,04,19,05,46,6.30
2017,04,19,05,47,6.30
2017,04,19,05,48,6.40
2017,04,19,05,49,6.40
2017,04,19,05,50,6.40
2017,04,19,05,51,6.40
2017,04,19,05,52,6.40
2017,04,19,05,53,6.40
2017,04,19,05,54,6.40
2017,04,19,05,55,6.40
2017,04,19,05,56,6.40
2017,04,19,05,57,6.40
2017,04,19,05,58,6.40
2017,04,19,05,59,6.40
2017,04,19,06,00,6.40
2017,04,19,06,01,6.40
2017,04,19,06,02,6.40
2017,04,19,06,03,6.40
2017,04,19,06,04,6.40
2017,04,19,06,05,6.40
2017,04,19,06,06,6.40
2017,04,19,06,07,6.40
2017,04,19,06,08,6.40
2017,04,19,06,09,6.40
2017,04,19,06,10,6.40
2017,04,19,06,11,6.40
2017,04,19,06,12,6.40
2017,04,19,06,13,6.40
2017,04,19,06,14,6.40
2017,04,19,06,15,6.30
2017,04,19,06,16,6.30
2017,04,19,06,17,6.30
2017,04,19,06,18,6.30
2017,04,19,06,19,6.30
2017,04,19,06,20,6.30
2017,04,19,06,21,6.30
2017,04,19,06,22,6.30
2017,04,19,06,23,6.30
2017,04,19,06,24,6.30
2017,04,19,06,25,6.30
2017,04,19,06,26,6.30
2017,04,19,06,27,6.20
2017,04,19,06,28,6.20
2017,04,19,06,29,6.20
2017,04,19,06,30,6.20
2017,04,19,06,31,6.20
2017,04,19,06,32,6.20
2017,04,19,06,33,6.30
2017,04,19,06,34,6.30
2017,04,19,06,35,6.30
2017,04,19,06,36,6.30
2017,04,19,06,37,6.30
2017,04,19,06,38,6.30
2017,04,19,06,39,6.30
2017,04,19,06,40,6.30
2017,04,19,06,41,6.30
2017,04,19,06,42,6.30
2017,04,19,06,43,6.30
2017,04,19,06,44,6.30
2017,04,19,06,45,6.30
2017,04,19,06,46,6.30
2017,04,19,06,47,6.30
2017,04,19,06,48,6.30
2017,04,19,06,49,6.40
2017,04,19,06,50,6.40
2017,04,19,06,51,6.30
2017,04,19,06,52,6.30
2017,04,19,06,53,6.30
2017,04,19,06,54,6.40
2017,04,19,06,55,6.40
2017,04,19,06,56,6.40
2017,04,19,06,57,6.40
2017,04,19,06,58,6.40
2017,04,19,06,59,6.40
2017,04,19,07,00,6.40
2017,04,19,07,01,6.40
2017,04,19,07,02,6.40
2017,04,19,07,03,6.40
2017,04,19,07,04,6.40
2017,04,19,07,05,6.40
2017,04,19,07,06,6.40
2017,04,19,07,07,6.40
2017,04,19,07,08,6.40
2017,04,19,07,09,6.40
2017,04,19,07,10,6.40
2017,04,19,07,11,6.40
2017,04,19,07,12,6.50
2017,04,19,07,13,6.50
2017,04,19,07,14,6.50
2017,04,19,07,15,6.50
2017,04,19,07,16,6.50
2017,04,19,07,17,6.50
2017,04,19,07,18,6.60
2017,04,19,07,19,6.60
2017,04,19,07,20,6.60
2017,04,19,07,21,6.60
2017,04,19,07,22,6.60
2017,04,19,07,23,6.60
2017,04,19,07,24,6.60
2017,04,19,07,25,6.60
2017,04,19,07,26,6.70
2017,04,19,07,27,6.70
2017,04,19,07,28,6.70
2017,04,19,07,29,6.70
2017,04,19,07,30,6.70
2017,04,19,07,31,6.70
2017,04,19,07,32,6.80
2017,04,19,07,33,6.80
2017,04,19,07,34,6.80
2017,04,19,07,35,6.90
2017,04,19,07,36,6.90
2017,04,19,07,37,6.90
2017,04,19,07,38,6.90
2017,04,19,07,39,7.00
2017,04,19,07,40,7.00
2017,04,19,07,41,7.00
2017,04,19,07,42,7.10
2017,04,19,07,43,7.10
2017,04,19,07,44,7.10
2017,04,19,07,45,7.20
2017,04,19,07,46,7.20
2017,04,19,07,47,7.20
2017,04,19,07,48,7.20
2017,04,19,07,49,7.20
2017,04,19,07,50,7.20
2017,04,19,07,51,7.20
2017,04,19,07,52,7.20
2017,04,19,07,53,7.30
2017,04,19,07,54,7.30
2017,04,19,07,55,7.30
2017,04,19,07,56,7.30
2017,04,19,07,57,7.30
2017,04,19,07,58,7.40
2017,04,19,07,59,7.40
2017,04,19,08,00,7.40
2017,04,19,08,01,7.40
2017,04,19,08,02,7.40
2017,04,19,08,03,7.40
2017,04,19,08,04,7.40
2017,04,19,08,05,7.30
2017,04,19,08,06,7.40
2017,04,19,08,07,7.40
2017,04,19,08,08,7.40
2017,04,19,08,09,7.40
2017,04,19,08,10,7.40
2017,04,19,08,11,7.40
2017,04,19,08,12,7.50
2017,04,19,08,13,7.50
2017,04,19,08,14,7.50
2017,04,19,08,15,7.60
2017,04,19,08,16,7.60
2017,04,19,08,17,7.60
2017,04,19,08,18,7.60
2017,04,19,08,19,7.60
2017,04,19,08,20,7.60
2017,04,19,08,21,7.60
2017,04,19,08,22,7.60
2017,04,19,08,23,7.60
2017,04,19,08,24,7.60
2017,04,19,08,25,7.60
2017,04,19,08,26,7.60
2017,04,19,08,27,7.60
2017,04,19,08,28,7.60
2017,04,19,08,29,7.60
2017,04,19,08,30,7.60
2017,04,19,08,31,7.60
2017,04,19,08,32,7.60
2017,04,19,08,33,7.60
2017,04,19,08,34,7.60
2017,04,19,08,35,7.60
2017,04,19,08,36,7.60
2017,04,19,08,37,7.60
2017,04,19,08,38,7.60
2017,04,19,08,39,7.70
2017,04,19,08,40,7.70
2017,04,19,08,41,7.70
2017,04,19,08,42,7.70
2017,04,19,08,43,7.70
2017,04,19,08,44,7.70
2017,04,19,08,45,7.70
2017,04,19,08,46,7.70
2017,04,19,08,47,7.70
2017,04,19,08,48,7.80
2017,04,19,08,49,7.80
2017,04,19,08,50,7.80
2017,04,19,08,51,7.80
2017,04,19,08,52,7.80
2017,04,19,08,53,7.80
2017,04,19,08,54,7.80
2017,04,19,08,55,7.90
2017,04,19,08,56,7.90
2017,04,19,08,57,7.90
2017,04,19,08,58,7.90
2017,04,19,08,59,8.00
2017,04,19,09,00,8.00
2017,04,19,09,01,8.10
2017,04,19,09,02,8.10
2017,04,19,09,03,8.10
2017,04,19,09,04,8.20
2017,04,19,09,05,8.20
2017,04,19,09,06,8.20
2017,04,19,09,07,8.20
2017,04,19,09,08,8.20
2017,04,19,09,09,8.20
2017,04,19,09,10,8.30
2017,04,19,09,11,8.30
2017,04,19,09,12,8.30
2017,04,19,09,13,8.30
2017,04,19,09,14,8.30
2017,04,19,09,15,8.30
2017,04,19,09,16,8.30
2017,04,19,09,17,8.30
2017,04,19,09,18,8.30
2017,04,19,09,19,8.30
2017,04,19,09,20,8.30
2017,04,19,09,21,8.30
2017,04,19,09,22,8.30
2017,04,19,09,23,8.30
2017,04,19,09,24,8.40
2017,04,19,09,25,8.40
2017,04,19,09,26,8.40
2017,04,19,09,27,8.40
2017,04,19,09,28,8.40
2017,04,19,09,29,8.40
2017,04,19,09,30,8.40
2017,04,19,09,31,8.40
2017,04,19,09,32,8.50
2017,04,19,09,33,8.50
2017,04,19,09,34,8.50
2017,04,19,09,35,8.50
2017,04,19,09,36,8.60
2017,04,19,09,37,8.60
2017,04,19,09,38,8.60
2017,04,19,09,39,8.60
2017,04,19,09,40,8.60
2017,04,19,09,41,8.60
2017,04,19,09,42,8.70
2017,04,19,09,43,8.70
2017,04,19,09,44,8.70
2017,04,19,09,45,8.80
2017,04,19,09,46,8.80
2017,04,19,09,47,8.80
2017,04,19,09,48,8.70
2017,04,19,09,49,8.70
2017,04,19,09,50,8.70
2017,04,19,09,51,8.70
2017,04,19,09,52,8.70
2017,04,19,09,53,8.70
2017,04,19,09,54,8.70
2017,04,19,09,55,8.70
2017,04,19,09,56,8.70
2017,04,19,09,57,8.70
2017,04,19,09,58,8.70
2017,04,19,09,59,8.70
2017,04,19,10,00,8.70
2017,04,19,10,01,8.70
2017,04,19,10,02,8.70
2017,04,19,10,03,8.70
2017,04,19,10,04,8.70
2017,04,19,10,05,8.70
2017,04,19,10,06,8.70
2017,04,19,10,07,8.80
2017,04,19,10,08,8.80
2017,04,19,10,09,8.80
2017,04,19,10,10,8.80
2017,04,19,10,11,8.90
2017,04,19,10,12,8.90
2017,04,19,10,13,8.90
2017,04,19,10,14,8.90
2017,04,19,10,15,9.00
2017,04,19,10,16,9.00
2017,04,19,10,17,9.10
2017,04,19,10,18,9.10
2017,04,19,10,19,9.10
2017,04,19,10,20,9.20
2017,04,19,10,21,9.20
2017,04,19,10,22,9.20
2017,04,19,10,23,9.30
2017,04,19,10,24,9.30
2017,04,19,10,25,9.30
2017,04,19,10,26,9.40
2017,04,19,10,27,9.40
2017,04,19,10,28,9.40
2017,04,19,10,29,9.40
2017,04,19,10,30,9.50
2017,04,19,10,31,9.60
2017,04,19,10,32,9.60
2017,04,19,10,33,9.60
2017,04,19,10,34,9.60
2017,04,19,10,35,9.70
2017,04,19,10,36,9.70
2017,04,19,10,37,9.70
2017,04,19,10,38,9.70
2017,04,19,10,39,9.80
2017,04,19,10,40,9.80
2017,04,19,10,41,9.80
2017,04,19,10,42,9.90
2017,04,19,10,43,9.90
2017,04,19,10,44,10.00
2017,04,19,10,45,10.00
2017,04,19,10,46,10.10
2017,04,19,10,47,10.10
2017,04,19,10,48,10.10
2017,04,19,10,49,10.20
2017,04,19,10,50,10.20
2017,04,19,10,51,10.20
2017,04,19,10,52,10.20
2017,04,19,10,53,10.30
2017,04,19,10,54,10.30
2017,04,19,10,55,10.30
2017,04,19,10,56,10.30
2017,04,19,10,57,10.30
2017,04,19,10,58,10.40
2017,04,19,10,59,10.40
2017,04,19,11,00,10.40
2017,04,19,11,01,10.40
2017,04,19,11,02,10.40
2017,04,19,11,03,10.50
2017,04,19,11,04,10.50
2017,04,19,11,05,10.50
2017,04,19,11,06,10.50
2017,04,19,11,07,10.60
2017,04,19,11,08,10.60
2017,04,19,11,09,10.60
2017,04,19,11,10,10.60
2017,04,19,11,11,10.60
2017,04,19,11,12,10.60
2017,04,19,11,13,10.60
2017,04,19,11,14,10.60
2017,04,19,11,15,10.60
2017,04,19,11,16,10.70
2017,04,19,11,17,10.70
2017,04,19,11,18,10.70
2017,04,19,11,19,10.70
2017,04,19,11,20,10.70
2017,04,19,11,21,10.70
2017,04,19,11,22,10.70
2017,04,19,11,23,10.70
2017,04,19,11,24,10.70
2017,04,19,11,25,10.70
2017,04,19,11,26,10.70
2017,04,19,11,27,10.70
2017,04,19,11,28,10.80
2017,04,19,11,29,10.80
2017,04,19,11,30,10.80
2017,04,19,11,31,10.80
2017,04,19,11,32,10.80
2017,04,19,11,33,10.80
2017,04,19,11,34,10.80
2017,04,19,11,35,10.90
2017,04,19,11,36,10.90
2017,04,19,11,37,11.00
2017,04,19,11,38,11.10
2017,04,19,11,39,11.10
2017,04,19,11,40,11.10
2017,04,19,11,41,11.20
2017,04,19,11,42,11.20
2017,04,19,11,43,11.30
2017,04,19,11,44,11.30
2017,04,19,11,45,11.30
2017,04,19,11,46,11.30
2017,04,19,11,47,11.30
2017,04,19,11,48,11.40
2017,04,19,11,49,11.40
2017,04,19,11,50,11.40
2017,04,19,11,51,11.50
2017,04,19,11,52,11.60
2017,04,19,11,53,11.60
2017,04,19,11,54,11.60
2017,04,19,11,55,11.70
2017,04,19,11,56,11.70
2017,04,19,11,57,11.70
2017,04,19,11,58,11.70
2017,04,19,11,59,11.70
2017,04,19,12,00,11.70
2017,04,19,12,01,11.70
2017,04,19,12,02,11.80
2017,04,19,12,03,11.80
2017,04,19,12,04,11.80
2017,04,19,12,05,11.90
2017,04,19,12,06,11.90
2017,04,19,12,07,12.00
2017,04,19,12,08,12.10
2017,04,19,12,09,12.10
2017,04,19,12,10,12.10
2017,04,19,12,11,12.20
2017,04,19,12,12,12.20
2017,04,19,12,13,12.30
2017,04,19,12,14,12.30
2017,04,19,12,15,12.30
2017,04,19,12,16,12.30
2017,04,19,12,17,12.30
2017,04,19,12,18,12.30
2017,04,19,12,19,12.20
2017,04,19,12,20,12.20
2017,04,19,12,21,12.30
2017,04,19,12,22,12.30
2017,04,19,12,23,12.20
2017,04,19,12,24,12.20
2017,04,19,12,25,12.20
2017,04,19,12,26,12.20
2017,04,19,12,27,12.20
2017,04,19,12,28,12.20
2017,04,19,12,29,12.20
2017,04,19,12,30,12.20
2017,04,19,12,31,12.20
2017,04,19,12,32,12.30
2017,04,19,12,33,12.30
2017,04,19,12,34,12.30
2017,04,19,12,35,12.30
2017,04,19,12,36,12.40
2017,04,19,12,37,12.40
2017,04,19,12,38,12.40
2017,04,19,12,39,12.50
2017,04,19,12,40,12.60
2017,04,19,12,41,12.60
2017,04,19,12,42,12.60
2017,04,19,12,43,12.70
2017,04,19,12,44,12.70
2017,04,19,12,45,12.70
2017,04,19,12,46,12.80
2017,04,19,12,47,12.80
2017,04,19,12,48,12.80
2017,04,19,12,49,12.80
2017,04,19,12,50,12.80
2017,04,19,12,51,12.80
2017,04,19,12,52,12.80
2017,04,19,12,53,12.80
2017,04,19,12,54,12.80
2017,04,19,12,55,12.80
2017,04,19,12,56,12.80
2017,04,19,12,57,12.80
2017,04,19,12,58,12.90
2017,04,19,12,59,12.90
2017,04,19,13,00,12.90
2017,04,19,13,01,12.80
2017,04,19,13,02,12.80
2017,04,19,13,03,12.80
2017,04,19,13,04,12.80
2017,04,19,13,05,12.90
2017,04,19,13,06,12.90
2017,04,19,13,07,12.90
2017,04,19,13,08,12.90
2017,04,19,13,09,13.00
2017,04,19,13,10,13.10
2017,04,19,13,11,13.10
2017,04,19,13,12,13.10
2017,04,19,13,13,13.10
2017,04,19,13,14,13.10
2017,04,19,13,15,13.10
2017,04,19,13,16,13.10
2017,04,19,13,17,13.10
2017,04,19,13,18,13.10
2017,04,19,13,19,13.00
2017,04,19,13,20,13.10
2017,04,19,13,21,13.10
2017,04,19,13,22,13.10
2017,04,19,13,23,13.10
2017,04,19,13,24,13.10
2017,04,19,13,25,13.10
2017,04,19,13,26,13.10
2017,04,19,13,27,13.10
2017,04,19,13,28,13.10
2017,04,19,13,29,13.10
2017,04,19,13,30,13.10
2017,04,19,13,31,13.10
2017,04,19,13,32,13.10
2017,04,19,13,33,13.10
2017,04,19,13,34,13.10
2017,04,19,13,35,13.10
2017,04,19,13,36,13.10
2017,04,19,13,37,13.20
2017,04,19,13,38,13.20
2017,04,19,13,39,13.30
2017,04,19,13,40,13.30
2017,04,19,13,41,13.30
2017,04,19,13,42,13.30
2017,04,19,13,43,13.30
2017,04,19,13,44,13.30
2017,04,19,13,45,13.30
2017,04,19,13,46,13.30
2017,04,19,13,47,13.30
2017,04,19,13,48,13.20
2017,04,19,13,49,13.20
2017,04,19,13,50,13.20
2017,04,19,13,51,13.20
2017,04,19,13,52,13.20
2017,04,19,13,53,13.20
2017,04,19,13,54,13.20
2017,04,19,13,55,13.10
2017,04,19,13,56,13.10
2017,04,19,13,57,13.10
2017,04,19,13,58,13.00
2017,04,19,13,59,13.00
2017,04,19,14,00,13.00
2017,04,19,14,01,12.90
2017,04,19,14,02,12.90
2017,04,19,14,03,12.80
2017,04,19,14,04,12.80
2017,04,19,14,05,12.80
2017,04,19,14,06,12.80
2017,04,19,14,07,12.70
2017,04,19,14,08,12.80
2017,04,19,14,09,12.80
2017,04,19,14,10,12.80
2017,04,19,14,11,12.80
2017,04,19,14,12,12.90
2017,04,19,14,13,12.90
2017,04,19,14,14,13.00
2017,04,19,14,15,13.10
2017,04,19,14,16,13.10
2017,04,19,14,17,13.20
2017,04,19,14,18,13.30
2017,04,19,14,19,13.40
2017,04,19,14,20,13.40
2017,04,19,14,21,13.50
2017,04,19,14,22,13.60
2017,04,19,14,23,13.60
2017,04,19,14,24,13.70
2017,04,19,14,25,13.70
2017,04,19,14,26,13.70
2017,04,19,14,27,13.70
2017,04,19,14,28,13.70
2017,04,19,14,29,13.70
2017,04,19,14,30,13.70
2017,04,19,14,31,13.70
2017,04,19,14,32,13.70
2017,04,19,14,33,13.70
2017,04,19,14,34,13.70
2017,04,19,14,35,13.80
2017,04,19,14,36,13.80
2017,04,19,14,37,13.80
2017,04,19,14,38,13.80
2017,04,19,14,39,13.90
2017,04,19,14,40,13.90
2017,04,19,14,41,13.90
2017,04,19,14,42,14.00
2017,04,19,14,43,14.00
2017,04,19,14,44,14.10
2017,04,19,14,45,14.10
2017,04,19,14,46,14.10
2017,04,19,14,47,14.10
2017,04,19,14,48,14.10
2017,04,19,14,49,14.20
2017,04,19,14,50,14.20
2017,04,19,14,51,14.20
2017,04,19,14,52,14.20
2017,04,19,14,53,14.20
2017,04,19,14,54,14.20
2017,04,19,14,55,14.10
2017,04,19,14,56,14.10
2017,04,19,14,57,14.00
2017,04,19,14,58,13.90
2017,04,19,14,59,13.90
2017,04,19,15,00,13.80
2017,04,19,15,01,13.80
2017,04,19,15,02,13.70
2017,04,19,15,03,13.70
2017,04,19,15,04,13.70
2017,04,19,15,05,13.70
2017,04,19,15,06,13.70
2017,04,19,15,07,13.70
2017,04,19,15,08,13.60
2017,04,19,15,09,13.60
2017,04,19,15,10,13.60
2017,04,19,15,11,13.60
2017,04,19,15,12,13.60
2017,04,19,15,13,13.60
2017,04,19,15,14,13.50
2017,04,19,15,15,13.50
2017,04,19,15,16,13.50
2017,04,19,15,17,13.40
2017,04,19,15,18,13.40
2017,04,19,15,19,13.40
2017,04,19,15,20,13.30
2017,04,19,15,21,13.30
2017,04,19,15,22,13.30
2017,04,19,15,23,13.30
2017,04,19,15,24,13.30
2017,04,19,15,25,13.30
2017,04,19,15,26,13.30
2017,04,19,15,27,13.20
2017,04,19,15,28,13.20
2017,04,19,15,29,13.20
2017,04,19,15,30,13.20
2017,04,19,15,31,13.10
2017,04,19,15,32,13.10
2017,04,19,15,33,13.10
2017,04,19,15,34,13.00
2017,04,19,15,35,13.00
2017,04,19,15,36,13.00
2017,04,19,15,37,13.00
2017,04,19,15,38,13.10
2017,04,19,15,39,13.10
2017,04,19,15,40,13.10
2017,04,19,15,41,13.10
2017,04,19,15,42,13.10
2017,04,19,15,43,13.10
2017,04,19,15,44,13.10
2017,04,19,15,45,13.10
2017,04,19,15,46,13.10
2017,04,19,15,47,13.00
2017,04,19,15,48,13.00
2017,04,19,15,49,13.00
2017,04,19,15,50,13.00
2017,04,19,15,51,12.90
2017,04,19,15,52,12.90
2017,04,19,15,53,12.80
2017,04,19,15,54,12.80
2017,04,19,15,55,12.70
2017,04,19,15,56,12.60
2017,04,19,15,57,12.60
2017,04,19,15,58,12.50
2017,04,19,15,59,12.40
2017,04,19,16,00,12.40
2017,04,19,16,01,12.30
2017,04,19,16,02,12.20
2017,04,19,16,03,12.20
2017,04,19,16,04,12.00
2017,04,19,16,05,11.90
2017,04,19,16,06,11.80
2017,04,19,16,07,11.60
2017,04,19,16,08,11.60
2017,04,19,16,09,11.50
2017,04,19,16,10,11.40
2017,04,19,16,11,11.30
2017,04,19,16,12,11.20
2017,04,19,16,13,11.10
2017,04,19,16,14,11.00
2017,04,19,16,15,10.80
2017,04,19,16,16,10.70
2017,04,19,16,17,10.60
2017,04,19,16,18,10.60
2017,04,19,16,19,10.50
2017,04,19,16,20,10.40
2017,04,19,16,21,10.40
2017,04,19,16,22,10.30
2017,04,19,16,23,10.20
2017,04,19,16,24,10.20
2017,04,19,16,25,10.10
2017,04,19,16,26,10.10
2017,04,19,16,27,10.10
2017,04,19,16,28,10.10
2017,04,19,16,29,10.10
2017,04,19,16,30,10.10
2017,04,19,16,31,10.20
2017,04,19,16,32,10.20
2017,04,19,16,33,10.30
2017,04,19,16,34,10.30
2017,04,19,16,35,10.40
2017,04,19,16,36,10.40
2017,04,19,16,37,10.50
2017,04,19,16,38,10.50
2017,04,19,16,39,10.50
2017,04,19,16,40,10.50
2017,04,19,16,41,10.60
2017,04,19,16,42,10.70
2017,04,19,16,43,10.70
2017,04,19,16,44,10.70
2017,04,19,16,45,10.70
2017,04,19,16,46,10.70
2017,04,19,16,47,10.70
2017,04,19,16,48,10.70
2017,04,19,16,49,10.70
2017,04,19,16,50,10.70
2017,04,19,16,51,10.80
2017,04,19,16,52,10.80
2017,04,19,16,53,10.80
2017,04,19,16,54,10.80
2017,04,19,16,55,10.90
2017,04,19,16,56,10.90
2017,04,19,16,57,10.90
2017,04,19,16,58,11.00
2017,04,19,16,59,11.00
2017,04,19,17,00,11.10
2017,04,19,17,01,11.10
2017,04,19,17,02,11.10
2017,04,19,17,03,11.20
2017,04,19,17,04,11.20
2017,04,19,17,05,11.20
2017,04,19,17,06,11.20
2017,04,19,17,07,11.20
2017,04,19,17,08,11.10
2017,04,19,17,09,11.20
2017,04,19,17,10,11.20
2017,04,19,17,11,11.20
2017,04,19,17,12,11.20
2017,04,19,17,13,11.20
2017,04,19,17,14,11.20
2017,04,19,17,15,11.20
2017,04,19,17,16,11.20
2017,04,19,17,17,11.20
2017,04,19,17,18,11.20
2017,04,19,17,19,11.20
2017,04,19,17,20,11.20
2017,04,19,17,21,11.20
2017,04,19,17,22,11.30
2017,04,19,17,23,11.30
2017,04,19,17,24,11.30
2017,04,19,17,25,11.30
2017,04,19,17,26,11.30
2017,04,19,17,27,11.30
2017,04,19,17,28,11.20
2017,04,19,17,29,11.20
2017,04,19,17,30,11.20
2017,04,19,17,31,11.20
2017,04,19,17,32,11.20
2017,04,19,17,33,11.20
2017,04,19,17,34,11.20
2017,04,19,17,35,11.20
2017,04,19,17,36,11.20
2017,04,19,17,37,11.20
2017,04,19,17,38,11.20
2017,04,19,17,39,11.20
2017,04,19,17,40,11.10
2017,04,19,17,41,11.10
2017,04,19,17,42,11.10
2017,04,19,17,43,11.10
2017,04,19,17,44,11.10
2017,04,19,17,45,11.10
2017,04,19,17,46,11.10
2017,04,19,17,47,11.10